Time,TemperatureF,DewpointF,PressureIn,WindDirection,WindDirectionDegrees,WindSpeedMPH,WindSpeedGustMPH,Humidity,HourlyPrecipIn,Conditions,Clouds,dailyrainin,SoftwareType,DateUTC
2013-11-08 00:09:00,67.7,25.0,30.07,WNW,284,0.0,-999.0,20,-99.99,,,0.00,weatherlink.com 1.10,2013-11-08 08:09:00,
2013-11-08 00:24:00,67.0,25.0,30.07,WNW,284,0.0,-999.0,20,-99.99,,,0.00,weatherlink.com 1.10,2013-11-08 08:24:00,
2013-11-08 00:39:00,66.6,25.0,30.07,WNW,284,0.0,-999.0,21,-99.99,,,0.00,weatherlink.com 1.10,2013-11-08 08:39:00,
2013-11-08 00:54:00,66.0,25.0,30.07,WNW,283,0.0,-999.0,21,-99.99,,,0.00,weatherlink.com 1.10,2013-11-08 08:54:00,
2013-11-08 01:09:00,65.2,24.0,30.07,WNW,284,0.0,-999.0,21,-99.99,,,0.00,weatherlink.com 1.10,2013-11-08 09:09:00,
2013-11-08 01:24:00,64.9,25.0,30.07,WNW,284,0.0,-999.0,22,-99.99,,,0.00,weatherlink.com 1.10,2013-11-08 09:24:00,
2013-11-08 01:39:00,64.9,24.0,30.07,WNW,284,0.0,-999.0,21,-99.99,,,0.00,weatherlink.com 1.10,2013-11-08 09:39:00,
2013-11-08 01:54:00,65.0,25.0,30.06,WNW,284,0.0,-999.0,22,-99.99,,,0.00,weatherlink.com 1.10,2013-11-08 09:54:00,
2013-11-08 02:09:00,65.0,24.0,30.06,WNW,283,0.0,-999.0,21,-99.99,,,0.00,weatherlink.com 1.10,2013-11-08 10:09:00,
2013-11-08 02:24:00,65.2,25.0,30.06,WNW,283,0.0,-999.0,22,-99.99,,,0.00,weatherlink.com 1.10,2013-11-08 10:24:00,
2013-11-08 02:39:00,65.4,25.0,30.05,WNW,283,0.0,-999.0,22,-99.99,,,0.00,weatherlink.com 1.10,2013-11-08 10:39:00,
2013-11-08 02:54:00,65.2,25.0,30.05,WNW,284,0.0,-999.0,22,-99.99,,,0.00,weatherlink.com 1.10,2013-11-08 10:54:00,
2013-11-08 03:09:00,65.2,25.0,30.05,WNW,284,0.0,-999.0,22,-99.99,,,0.00,weatherlink.com 1.10,2013-11-08 11:09:00,
2013-11-08 03:24:00,65.3,25.0,30.05,WNW,283,0.0,-999.0,22,-99.99,,,0.00,weatherlink.com 1.10,2013-11-08 11:24:00,
2013-11-08 03:39:00,65.3,25.0,30.05,WNW,283,0.0,-999.0,22,-99.99,,,0.00,weatherlink.com 1.10,2013-11-08 11:39:00,
2013-11-08 03:54:00,65.2,24.0,30.04,WNW,283,0.0,-999.0,21,-99.99,,,0.00,weatherlink.com 1.10,2013-11-08 11:54:00,
2013-11-08 04:09:00,64.9,25.0,30.04,WNW,284,0.0,-999.0,22,-99.99,,,0.00,weatherlink.com 1.10,2013-11-08 12:09:00,
2013-11-08 04:24:00,64.9,25.0,30.04,WNW,284,0.0,-999.0,22,-99.99,,,0.00,weatherlink.com 1.10,2013-11-08 12:24:00,
2013-11-08 04:39:00,64.9,24.0,30.04,WNW,284,0.0,-999.0,21,-99.99,,,0.00,weatherlink.com 1.10,2013-11-08 12:39:00,
2013-11-08 04:54:00,65.0,24.0,30.04,WNW,283,0.0,-999.0,21,-99.99,,,0.00,weatherlink.com 1.10,2013-11-08 12:54:00,
2013-11-08 05:09:00,65.5,24.0,30.04,WNW,284,0.0,-999.0,21,-99.99,,,0.00,weatherlink.com 1.10,2013-11-08 13:09:00,
2013-11-08 05:24:00,65.9,25.0,30.03,WNW,284,0.0,-999.0,21,-99.99,,,0.00,weatherlink.com 1.10,2013-11-08 13:24:00,
2013-11-08 05:39:00,65.8,25.0,30.03,WNW,284,0.0,-999.0,21,-99.99,,,0.00,weatherlink.com 1.10,2013-11-08 13:39:00,
2013-11-08 05:54:00,65.3,23.0,30.03,WNW,284,0.0,-999.0,20,-99.99,,,0.00,weatherlink.com 1.10,2013-11-08 13:54:00,
2013-11-08 06:09:00,65.1,23.0,30.03,WNW,283,0.0,-999.0,20,-99.99,,,0.00,weatherlink.com 1.10,2013-11-08 14:09:00,
2013-11-08 06:24:00,65.3,23.0,30.03,WNW,284,0.0,-999.0,20,-99.99,,,0.00,weatherlink.com 1.10,2013-11-08 14:24:00,
2013-11-08 06:39:00,65.6,23.0,30.04,WNW,284,0.0,-999.0,20,-99.99,,,0.00,weatherlink.com 1.10,2013-11-08 14:39:00,
2013-11-08 06:54:00,65.9,24.0,30.04,WNW,283,0.0,-999.0,20,-99.99,,,0.00,weatherlink.com 1.10,2013-11-08 14:54:00,
2013-11-08 07:09:00,66.2,24.0,30.04,WNW,284,0.0,-999.0,20,-99.99,,,0.00,weatherlink.com 1.10,2013-11-08 15:09:00,
2013-11-08 07:24:00,66.5,24.0,30.05,WNW,283,0.0,-999.0,20,-99.99,,,0.00,weatherlink.com 1.10,2013-11-08 15:24:00,
2013-11-08 07:39:00,67.9,28.0,30.05,WNW,283,0.0,-999.0,22,-99.99,,,0.00,weatherlink.com 1.10,2013-11-08 15:39:00,
2013-11-08 07:54:00,68.4,27.0,30.05,WNW,283,0.0,-999.0,21,-99.99,,,0.00,weatherlink.com 1.10,2013-11-08 15:54:00,
2013-11-08 08:09:00,67.1,27.0,30.05,WNW,284,0.0,-999.0,22,-99.99,,,0.00,weatherlink.com 1.10,2013-11-08 16:09:00,
2013-11-08 08:24:00,67.7,26.0,30.05,WNW,284,0.0,-999.0,21,-99.99,,,0.00,weatherlink.com 1.10,2013-11-08 16:24:00,
2013-11-08 08:39:00,68.1,27.0,30.06,WNW,283,1.0,-999.0,21,-99.99,,,0.00,weatherlink.com 1.10,2013-11-08 16:39:00,
2013-11-08 08:54:00,68.6,26.0,30.06,WNW,284,0.0,-999.0,20,-99.99,,,0.00,weatherlink.com 1.10,2013-11-08 16:54:00,
2013-11-08 09:09:00,69.0,27.0,30.06,WNW,284,0.0,-999.0,21,-99.99,,,0.00,weatherlink.com 1.10,2013-11-08 17:09:00,
2013-11-08 09:24:00,68.5,27.0,30.06,WNW,283,0.0,-999.0,21,-99.99,,,0.00,weatherlink.com 1.10,2013-11-08 17:24:00,
2013-11-08 09:39:00,69.6,28.0,30.06,WNW,283,0.0,-999.0,21,-99.99,,,0.00,weatherlink.com 1.10,2013-11-08 17:39:00,
2013-11-08 09:54:00,69.3,26.0,30.06,WNW,284,0.0,-999.0,20,-99.99,,,0.00,weatherlink.com 1.10,2013-11-08 17:54:00,
2013-11-08 10:09:00,69.4,27.0,30.06,WNW,284,0.0,-999.0,20,-99.99,,,0.00,weatherlink.com 1.10,2013-11-08 18:09:00,
2013-11-08 10:24:00,70.1,26.0,30.05,WNW,284,0.0,-999.0,19,-99.99,,,0.00,weatherlink.com 1.10,2013-11-08 18:24:00,
2013-11-08 10:39:00,70.2,26.0,30.05,WNW,283,0.0,-999.0,19,-99.99,,,0.00,weatherlink.com 1.10,2013-11-08 18:39:00,
2013-11-08 10:54:00,70.2,32.0,30.05,WNW,283,0.0,-999.0,24,-99.99,,,0.00,weatherlink.com 1.10,2013-11-08 18:54:00,
2013-11-08 11:09:00,70.2,31.0,30.05,WNW,284,0.0,-999.0,23,-99.99,,,0.00,weatherlink.com 1.10,2013-11-08 19:09:00,
2013-11-08 11:24:00,70.5,30.0,30.05,WNW,284,0.0,-999.0,22,-99.99,,,0.00,weatherlink.com 1.10,2013-11-08 19:24:00,
2013-11-08 11:39:00,69.5,27.0,30.05,West,279,0.0,-999.0,20,-99.99,,,0.00,weatherlink.com 1.10,2013-11-08 19:39:00,
2013-11-08 11:54:00,69.9,28.0,30.04,West,279,0.0,-999.0,21,-99.99,,,0.00,weatherlink.com 1.10,2013-11-08 19:54:00,
2013-11-08 12:24:00,71.9,30.0,30.02,West,278,0.0,-999.0,21,-99.99,,,0.00,weatherlink.com 1.10,2013-11-08 20:24:00,
2013-11-08 12:39:00,71.0,30.0,30.01,West,278,0.0,-999.0,22,-99.99,,,0.00,weatherlink.com 1.10,2013-11-08 20:39:00,
2013-11-08 12:54:00,71.5,31.0,30.01,West,273,0.0,-999.0,22,-99.99,,,0.00,weatherlink.com 1.10,2013-11-08 20:54:00,
2013-11-08 13:09:00,71.0,30.0,30.00,West,272,0.0,-999.0,22,-99.99,,,0.00,weatherlink.com 1.10,2013-11-08 21:09:00,
2013-11-08 13:24:00,71.6,32.0,29.99,West,271,0.0,-999.0,23,-99.99,,,0.00,weatherlink.com 1.10,2013-11-08 21:24:00,
2013-11-08 13:39:00,72.3,30.0,29.99,West,270,0.0,-999.0,21,-99.99,,,0.00,weatherlink.com 1.10,2013-11-08 21:39:00,
2013-11-08 13:54:00,71.0,28.0,29.98,West,270,0.0,-999.0,20,-99.99,,,0.00,weatherlink.com 1.10,2013-11-08 21:54:00,
2013-11-08 14:08:00,71.5,28.0,29.98,West,269,0.0,-999.0,20,-99.99,,,0.00,weatherlink.com 1.10,2013-11-08 22:08:00,
2013-11-08 14:23:00,71.4,28.0,29.98,West,269,0.0,-999.0,20,-99.99,,,0.00,weatherlink.com 1.10,2013-11-08 22:23:00,
2013-11-08 14:39:00,71.5,28.0,29.98,SW,235,0.0,-999.0,20,-99.99,,,0.00,weatherlink.com 1.10,2013-11-08 22:39:00,
2013-11-08 14:54:00,71.7,27.0,29.98,SW,234,0.0,-999.0,19,-99.99,,,0.00,weatherlink.com 1.10,2013-11-08 22:54:00,
2013-11-08 15:09:00,70.8,26.0,29.98,SW,230,0.0,-999.0,19,-99.99,,,0.00,weatherlink.com 1.10,2013-11-08 23:09:00,
2013-11-08 15:24:00,70.5,29.0,29.98,SW,236,0.0,-999.0,21,-99.99,,,0.00,weatherlink.com 1.10,2013-11-08 23:24:00,
2013-11-08 15:39:00,69.8,27.0,29.97,SW,236,0.0,-999.0,20,-99.99,,,0.00,weatherlink.com 1.10,2013-11-08 23:39:00,
2013-11-08 15:54:00,68.9,26.0,29.97,SW,236,0.0,-999.0,20,-99.99,,,0.00,weatherlink.com 1.10,2013-11-08 23:54:00,
2013-11-08 16:09:00,69.0,26.0,29.96,SW,236,0.0,-999.0,20,-99.99,,,0.00,weatherlink.com 1.10,2013-11-09 00:09:00,
2013-11-08 16:24:00,68.9,27.0,29.96,SW,236,0.0,-999.0,21,-99.99,,,0.00,weatherlink.com 1.10,2013-11-09 00:24:00,
2013-11-08 16:39:00,68.4,28.0,29.96,SW,236,0.0,-999.0,22,-99.99,,,0.00,weatherlink.com 1.10,2013-11-09 00:39:00,
2013-11-08 16:53:00,68.7,28.0,29.96,SW,236,0.0,-999.0,22,-99.99,,,0.00,weatherlink.com 1.10,2013-11-09 00:53:00,
2013-11-08 17:08:00,68.3,27.0,29.96,SW,236,0.0,-999.0,21,-99.99,,,0.00,weatherlink.com 1.10,2013-11-09 01:08:00,
2013-11-08 17:23:00,67.6,27.0,29.96,SW,236,0.0,-999.0,22,-99.99,,,0.00,weatherlink.com 1.10,2013-11-09 01:23:00,
2013-11-08 17:38:00,67.1,29.0,29.96,SW,236,0.0,-999.0,24,-99.99,,,0.00,weatherlink.com 1.10,2013-11-09 01:38:00,
2013-11-08 17:53:00,66.9,29.0,29.96,SW,236,0.0,-999.0,24,-99.99,,,0.00,weatherlink.com 1.10,2013-11-09 01:53:00,
2013-11-08 18:09:00,66.6,29.0,29.97,SW,236,0.0,-999.0,24,-99.99,,,0.00,weatherlink.com 1.10,2013-11-09 02:09:00,
2013-11-08 18:24:00,67.0,27.0,29.97,SW,236,0.0,-999.0,22,-99.99,,,0.00,weatherlink.com 1.10,2013-11-09 02:24:00,
2013-11-08 18:39:00,67.1,28.0,29.97,SW,236,0.0,-999.0,23,-99.99,,,0.00,weatherlink.com 1.10,2013-11-09 02:39:00,
2013-11-08 18:54:00,66.9,27.0,29.97,SW,236,0.0,-999.0,22,-99.99,,,0.00,weatherlink.com 1.10,2013-11-09 02:54:00,
2013-11-08 19:09:00,66.9,28.0,29.97,SW,236,0.0,-999.0,23,-99.99,,,0.00,weatherlink.com 1.10,2013-11-09 03:09:00,
2013-11-08 19:24:00,66.8,28.0,29.98,SW,236,0.0,-999.0,23,-99.99,,,0.00,weatherlink.com 1.10,2013-11-09 03:24:00,
2013-11-08 19:39:00,66.5,27.0,29.97,SW,236,0.0,-999.0,23,-99.99,,,0.00,weatherlink.com 1.10,2013-11-09 03:39:00,
2013-11-08 19:54:00,66.7,28.0,29.97,WSW,238,0.0,-999.0,23,-99.99,,,0.00,weatherlink.com 1.10,2013-11-09 03:54:00,
2013-11-08 20:09:00,66.9,28.0,29.98,WSW,238,0.0,-999.0,23,-99.99,,,0.00,weatherlink.com 1.10,2013-11-09 04:09:00,
2013-11-08 20:24:00,66.4,27.0,29.98,WSW,238,0.0,-999.0,23,-99.99,,,0.00,weatherlink.com 1.10,2013-11-09 04:24:00,
2013-11-08 20:39:00,66.5,27.0,29.98,WSW,238,0.0,-999.0,23,-99.99,,,0.00,weatherlink.com 1.10,2013-11-09 04:39:00,
2013-11-08 20:54:00,66.9,28.0,29.98,WSW,238,0.0,-999.0,23,-99.99,,,0.00,weatherlink.com 1.10,2013-11-09 04:54:00,
2013-11-08 21:09:00,67.0,27.0,29.98,WSW,238,0.0,-999.0,22,-99.99,,,0.00,weatherlink.com 1.10,2013-11-09 05:09:00,
2013-11-08 21:24:00,66.9,27.0,29.98,WSW,238,0.0,-999.0,22,-99.99,,,0.00,weatherlink.com 1.10,2013-11-09 05:24:00,
2013-11-08 21:39:00,66.9,27.0,29.98,WSW,238,0.0,-999.0,22,-99.99,,,0.00,weatherlink.com 1.10,2013-11-09 05:39:00,
2013-11-08 21:54:00,66.8,27.0,29.98,WSW,238,0.0,-999.0,22,-99.99,,,0.00,weatherlink.com 1.10,2013-11-09 05:54:00,
2013-11-08 22:09:00,66.6,26.0,29.98,WSW,238,0.0,-999.0,22,-99.99,,,0.00,weatherlink.com 1.10,2013-11-09 06:09:00,
2013-11-08 22:24:00,66.1,26.0,29.99,WSW,238,0.0,-999.0,22,-99.99,,,0.00,weatherlink.com 1.10,2013-11-09 06:24:00,
2013-11-08 22:39:00,65.4,25.0,29.99,WSW,238,0.0,-999.0,22,-99.99,,,0.00,weatherlink.com 1.10,2013-11-09 06:39:00,
2013-11-08 22:54:00,64.7,26.0,29.99,WSW,238,0.0,-999.0,23,-99.99,,,0.00,weatherlink.com 1.10,2013-11-09 06:54:00,
2013-11-08 23:09:00,63.8,26.0,29.98,WSW,238,0.0,-999.0,24,-99.99,,,0.00,weatherlink.com 1.10,2013-11-09 07:09:00,
2013-11-08 23:24:00,63.1,26.0,29.98,WSW,238,0.0,-999.0,24,-99.99,,,0.00,weatherlink.com 1.10,2013-11-09 07:24:00,
2013-11-08 23:39:00,62.9,26.0,29.99,WSW,238,0.0,-999.0,25,-99.99,,,0.00,weatherlink.com 1.10,2013-11-09 07:39:00,
2013-11-08 23:54:00,62.9,25.0,29.99,WSW,238,0.0,-999.0,24,-99.99,,,0.00,weatherlink.com 1.10,2013-11-09 07:54:00,